Date,TemperatureHighF,TemperatureAvgF,TemperatureLowF,DewpointHighF,DewpointAvgF,DewpointLowF,HumidityHigh,HumidityAvg,HumidityLow,PressureMaxIn,PressureMinIn,WindSpeedMaxMPH,WindSpeedAvgMPH,GustSpeedMaxMPH,PrecipitationSumIn
2013-1-3,89,83,81,76,75,74,82,76,65,29.80,29.72,2,0,10,0.00
2013-1-4,90,82,74,79,75,72,92,82,66,29.81,29.72,2,1,12,0.20
2013-1-5,91,80,74,78,74,69,91,80,61,29.86,29.74,21,1,28,0.09
2013-1-6,91,80,74,76,73,70,91,79,59,29.85,29.78,6,1,15,0.01
2013-1-7,90,80,74,78,74,70,92,83,63,29.86,29.77,8,1,17,0.82
2013-1-8,90,80,73,78,73,70,92,80,62,29.83,29.70,3,0,12,0.09
2013-1-9,91,83,74,81,75,71,89,79,69,29.75,29.60,3,0,7,0.00
2013-1-10,76,75,73,73,71,70,91,89,88,29.67,29.63,1,0,2,0.00
2013-1-11,89,82,76,80,76,72,88,81,66,29.84,29.71,13,2,17,0.00
2013-1-12,80,78,77,76,74,73,92,88,81,29.85,29.79,1,0,4,0.10
2013-1-13,87,83,76,78,74,71,87,76,69,29.83,29.75,16,5,20,0.00
2013-1-14,91,81,72,78,73,68,90,76,60,29.82,29.72,6,1,12,0.00
2013-1-15,92,82,71,81,75,68,91,79,67,29.81,29.72,12,2,18,0.00
2013-1-16,89,81,75,80,74,71,92,80,67,29.83,29.75,8,1,12,0.06
2013-1-17,88,81,74,79,74,70,89,79,68,29.82,29.73,9,2,15,0.06
2013-1-18,90,81,72,79,74,69,91,80,66,29.82,29.70,8,1,13,0.01
2013-1-19,81,76,74,76,73,71,93,91,82,29.76,29.62,9,1,15,1.99
2013-1-20,93,80,74,81,75,72,93,86,67,29.74,29.61,9,0,12,0.08
2013-1-21,89,79,75,81,76,73,94,89,74,29.69,29.55,6,0,10,0.57
2013-1-22,81,77,74,78,74,72,94,92,89,29.59,29.44,12,1,17,1.26
2013-1-23,84,81,78,80,77,75,93,90,85,29.47,29.28,22,8,31,2.09
2013-1-24,85,80,76,78,75,72,92,87,77,29.53,29.26,28,4,36,0.97
2013-1-25,99,85,77,80,76,73,90,77,50,29.58,29.43,7,2,21,0.01
2013-1-26,97,86,82,82,76,70,85,71,53,29.61,29.45,9,2,14,0.00
2013-1-27,100,85,81,82,76,75,87,75,49,29.60,29.47,20,4,30,0.31
2013-1-28,91,81,77,77,74,73,89,81,63,29.61,29.53,7,2,15,0.52
2013-2-10,88,85,80,80,77,76,86,78,73,29.88,29.79,10,2,14,0.47
2013-2-11,89,83,76,80,76,72,88,79,68,29.88,29.77,14,3,20,0.00
2013-2-12,91,82,76,78,75,73,92,79,62,29.87,29.76,3,1,13,0.06
2013-2-13,92,82,74,78,74,70,87,76,59,29.84,29.72,3,1,13,0.00
2013-2-14,77,76,75,74,73,72,91,91,90,29.82,29.78,2,1,9,0.12
2013-2-24,86,81,77,80,76,74,90,86,78,29.81,29.71,12,2,15,0.04
2013-2-25,91,82,75,82,76,72,91,82,70,29.80,29.67,13,2,17,0.00
2013-2-26,93,83,75,80,76,72,90,78,64,29.76,29.63,5,1,12,0.00
2013-2-27,92,81,76,82,76,73,92,85,65,29.71,29.57,12,2,16,0.81
2013-2-28,77,76,76,75,74,74,93,93,92,29.68,29.62,1,0,5,0.01
2013-3-2,88,86,85,81,81,80,85,83,80,29.64,29.52,7,3,12,0.01
2013-3-3,90,82,76,82,77,73,93,87,77,29.64,29.49,13,2,17,1.04
2013-3-4,77,76,76,75,74,74,94,93,93,29.62,29.54,1,0,3,0.00
2013-3-5,86,80,76,79,76,74,93,88,78,29.74,29.61,2,0,9,0.12
2013-3-6,91,82,76,80,76,74,92,83,67,29.79,29.66,6,1,14,0.03
2013-3-7,90,82,76,79,75,74,91,82,66,29.81,29.72,6,1,14,0.02
2013-3-8,90,81,76,76,74,72,90,78,60,29.84,29.73,5,1,14,0.03
2013-3-9,87,79,74,77,73,70,91,82,70,29.85,29.75,7,1,13,0.04
2013-3-10,87,79,74,76,73,71,91,81,69,29.84,29.75,6,1,15,0.02
2013-3-11,89,80,74,77,73,70,91,79,63,29.83,29.73,5,1,17,0.17
2013-3-12,86,77,73,77,73,70,92,86,72,29.87,29.70,8,1,15,0.30
2013-3-13,82,76,73,77,72,70,92,89,82,29.75,29.65,3,1,18,0.43
2013-3-14,87,80,75,75,72,68,90,77,65,29.80,29.64,6,1,16,0.00
2013-3-15,85,73,70,77,68,66,88,85,76,29.87,29.72,5,0,5,0.00
2013-4-4,88,88,88,73,73,73,61,61,61,29.96,29.96,2,2,9,0.00
2013-4-5,88,78,73,77,72,68,89,82,69,30.01,29.83,12,1,19,0.09
2013-4-6,84,76,72,75,71,68,90,84,70,29.97,29.85,3,1,12,0.07
2013-4-7,88,78,72,75,71,69,91,82,62,29.93,29.83,5,1,14,0.03
2013-4-8,82,77,74,76,72,70,91,85,77,29.95,29.85,6,2,14,0.05
2013-4-9,79,75,73,74,72,70,93,91,84,29.94,29.81,3,1,13,0.47
2013-4-10,73,73,72,71,71,70,94,93,93,29.87,29.78,2,0,6,0.35
2013-4-11,79,74,71,74,70,67,91,86,79,29.79,29.64,5,2,22,0.19
2013-4-12,76,75,73,71,70,70,89,86,84,29.73,29.71,2,2,13,0.00
2013-4-13,88,82,75,76,73,70,85,75,66,29.84,29.75,3,1,12,0.17
2013-4-14,88,78,70,76,72,68,92,81,66,29.88,29.76,7,1,12,0.00
2013-4-15,87,79,72,77,72,68,90,82,67,29.85,29.74,14,2,20,0.00
2013-4-16,85,76,71,76,71,68,90,84,70,29.91,29.79,8,1,13,0.01
2013-4-17,87,77,69,76,71,66,92,82,69,29.93,29.82,12,2,16,0.01
2013-4-18,87,78,71,76,71,67,90,81,64,29.96,29.84,14,2,17,0.00
2013-4-19,88,78,70,76,71,66,90,82,64,29.94,29.83,13,3,18,0.00
2013-4-20,85,77,68,76,71,66,93,83,69,29.90,29.77,3,0,6,0.00
2013-4-21,87,78,70,77,72,66,91,83,70,29.89,29.80,2,0,5,0.00
2013-4-22,88,80,73,79,75,70,91,83,72,29.95,29.83,7,1,10,0.00
2013-4-23,88,79,72,78,73,69,92,82,65,30.00,29.88,13,2,16,0.00
2013-4-24,87,78,71,76,71,68,92,82,65,30.02,29.90,13,2,16,0.00
2013-4-25,72,72,71,69,68,68,90,90,89,29.96,29.93,1,0,6,0.00
2013-4-26,87,78,71,74,70,67,89,79,62,30.03,29.94,3,1,18,0.00
2013-4-27,84,76,71,74,70,67,91,81,68,30.01,29.90,5,1,12,0.07
2013-4-28,86,77,72,72,69,67,88,77,58,30.01,29.90,5,1,13,0.01
2013-4-29,84,77,71,73,70,68,90,82,69,30.01,29.92,5,1,14,0.06
2013-4-30,83,78,74,75,72,70,91,84,75,29.97,29.89,7,2,20,0.16
2013-5-1,86,80,76,75,72,70,85,77,66,29.95,29.85,6,2,18,0.00
2013-5-2,84,76,73,75,71,69,91,85,72,29.98,29.90,5,1,12,0.08
2013-5-3,72,72,71,70,69,69,92,92,91,30.01,29.94,2,0,8,0.17
2013-5-5,84,78,72,72,69,66,83,74,66,29.99,29.92,5,1,10,0.03
2013-5-6,82,73,68,70,67,65,90,82,67,30.01,29.89,3,1,13,0.02
2013-5-7,82,73,68,72,68,64,92,83,70,29.99,29.89,3,1,13,0.27
2013-5-8,78,72,69,73,69,67,93,91,83,30.04,29.93,5,1,17,0.94
2013-5-9,75,72,71,72,70,69,93,92,86,30.08,29.97,3,1,12,0.50
2013-5-10,83,75,70,72,70,68,92,85,70,30.04,29.95,6,1,15,0.02
2013-5-11,71,71,70,68,68,67,92,91,91,30.02,29.98,2,1,10,0.14
2013-5-15,82,82,82,74,74,74,76,76,76,29.87,29.87,7,7,11,0.00
2013-5-21,82,80,77,76,74,72,86,82,77,30.03,29.89,13,5,16,0.01
2013-5-22,86,77,72,77,73,69,93,86,72,29.96,29.84,6,1,9,0.01
2013-5-23,83,76,70,77,72,68,93,87,80,29.90,29.80,6,1,10,0.00
2013-5-24,76,73,68,70,66,61,89,79,66,29.99,29.86,3,0,13,0.00
2013-5-25,78,69,60,62,57,52,85,68,53,30.08,29.96,5,1,15,0.00
2013-5-26,80,70,61,64,61,56,85,73,58,30.08,29.97,5,1,15,0.00
2013-5-27,79,72,68,69,67,65,92,83,69,30.09,30.01,6,1,16,0.20
2013-5-28,80,72,67,69,66,63,91,82,66,30.09,30.00,5,1,15,0.16
2013-5-29,81,73,68,71,67,65,91,82,68,30.07,29.98,6,1,13,0.03
2013-5-30,84,74,69,74,69,66,91,84,69,30.05,29.97,3,1,15,0.11
2013-5-31,81,74,70,71,68,67,92,84,69,30.06,29.99,5,1,16,0.20
2013-6-1,81,73,68,71,68,66,92,84,69,30.04,29.93,5,1,15,0.10
2013-6-2,82,73,67,71,67,64,92,81,63,29.96,29.85,7,1,12,0.01
2013-6-3,82,72,63,71,65,60,91,81,62,30.00,29.85,9,1,13,0.01
2013-6-4,80,73,68,67,66,63,90,79,62,30.07,29.97,6,2,18,0.02
2013-6-5,83,74,68,70,66,64,88,78,57,30.09,30.00,3,1,14,0.01
2013-6-6,82,73,69,72,68,66,91,85,69,30.07,30.00,3,0,14,0.11
2013-6-7,80,73,69,71,68,66,92,85,69,30.07,29.99,6,1,16,0.02
2013-6-8,80,73,69,70,68,66,91,83,70,30.05,29.95,7,2,22,0.03
2013-6-9,80,74,69,72,68,66,91,85,73,30.01,29.90,3,1,15,0.01
2013-6-10,82,74,69,72,69,66,91,84,71,29.97,29.88,3,1,14,0.01
2013-6-11,81,74,70,72,69,66,92,85,70,29.96,29.87,3,0,9,0.02
2013-6-12,84,74,68,74,69,65,91,84,70,29.93,29.83,9,1,13,0.00
2013-6-13,84,76,71,74,70,67,90,82,67,29.90,29.79,12,2,16,0.00
2013-7-2,77,65,54,53,52,50,89,66,44,30.06,30.03,1,0,5,0.00
2013-7-4,70,70,70,65,65,65,86,86,86,29.98,29.98,0,0,4,0.00
2013-7-6,82,77,73,72,70,59,85,79,71,30.06,29.91,12,1,16,0.00
2013-7-7,84,77,72,73,70,67,90,79,66,30.11,30.01,5,1,16,0.02
2013-7-8,80,76,71,69,68,66,87,77,67,30.15,30.06,8,2,22,0.02
2013-7-9,75,71,68,68,66,63,90,84,77,30.12,30.02,5,2,17,0.20
2013-7-10,79,71,67,70,66,63,91,84,72,30.09,30.00,6,2,16,0.09
2013-7-11,80,73,68,70,67,65,91,84,69,30.13,30.04,8,2,21,0.16
2013-7-12,71,70,68,66,65,64,89,86,84,30.11,30.06,3,1,17,0.01
2013-7-17,72,72,72,66,66,66,81,81,81,29.99,29.99,0,0,4,0.00
2013-7-20,79,79,79,71,71,71,75,75,75,29.87,29.87,2,2,6,0.00
2013-7-22,71,71,71,66,66,66,86,86,86,30.05,30.05,0,0,2,0.00
2013-7-23,79,74,71,66,64,63,77,73,62,30.08,30.01,2,0,12,0.00
2013-7-24,74,70,66,62,53,45,76,56,44,30.12,30.02,6,1,16,0.00
2013-7-25,77,69,64,61,56,48,75,64,54,30.13,30.05,6,2,20,0.00
2013-7-26,78,72,68,67,64,62,88,77,68,30.12,30.04,5,1,15,0.00
2013-7-27,78,70,65,67,64,62,91,83,67,30.13,30.03,6,1,16,0.14
2013-7-28,81,73,67,68,65,63,88,77,64,30.11,30.01,5,1,16,0.01
2013-7-29,81,72,66,67,64,62,89,76,57,30.07,29.94,5,1,14,0.00
2013-7-30,81,71,65,67,63,61,88,77,60,30.00,29.85,13,1,16,0.00
2013-7-31,80,70,61,66,61,57,90,75,54,29.99,29.90,5,1,13,0.00
2013-8-1,81,69,59,65,60,55,86,74,54,30.03,29.93,5,1,16,0.00
2013-8-2,80,69,60,69,62,55,86,79,61,30.04,29.94,14,3,18,0.00
2013-8-3,80,70,64,69,64,60,88,81,68,30.07,29.98,5,1,15,0.00
2013-8-4,83,71,61,66,61,57,89,73,45,30.09,29.97,6,1,12,0.00
2013-8-5,81,70,61,64,58,54,83,68,41,30.11,29.99,9,1,15,0.00
2013-8-6,80,70,61,63,59,56,86,70,46,30.10,29.98,6,1,12,0.00
2013-8-7,79,68,58,63,57,53,83,70,50,30.07,29.93,14,2,17,0.00
2013-8-8,82,68,56,66,59,52,87,74,53,30.03,29.89,5,0,10,0.00
2013-8-9,81,67,53,68,58,50,91,74,49,30.01,29.91,13,1,17,0.01
2013-8-10,79,68,60,66,59,52,79,71,60,30.05,29.95,14,2,17,0.00
2013-8-11,82,71,64,68,61,56,80,72,59,30.06,29.95,10,2,13,0.00
2013-8-12,82,72,64,68,63,60,87,76,55,30.03,29.92,12,3,14,0.00
2013-8-13,83,72,63,70,64,59,87,78,63,30.04,29.92,13,2,17,0.00
2013-8-14,82,71,61,69,63,58,88,77,61,30.05,29.93,8,2,12,0.00
2013-8-15,83,72,62,71,64,58,89,78,61,30.04,29.93,6,1,10,0.00
2013-8-16,65,64,63,62,61,60,90,88,87,30.03,29.99,1,0,6,0.00
2013-9-8,69,69,69,65,65,65,87,87,87,30.08,30.08,0,0,4,0.00
2013-9-13,82,82,82,72,72,72,73,73,73,30.03,30.03,1,1,3,0.00
2013-9-14,85,79,66,74,71,63,90,76,67,29.99,29.89,12,4,15,0.01
2013-9-15,85,75,66,75,68,63,90,80,65,30.01,29.88,14,4,18,0.00
2013-9-16,85,74,66,73,67,61,88,78,62,29.97,29.81,8,1,12,0.00
2013-9-17,82,74,66,74,68,63,91,83,71,29.92,29.76,7,1,12,0.00
2013-9-18,86,79,73,76,73,70,90,82,72,29.91,29.79,5,1,8,0.00
2013-9-19,85,77,68,76,71,65,91,82,70,29.93,29.82,5,0,6,0.00
2013-9-20,84,75,64,75,68,61,92,82,63,29.95,29.81,5,0,6,0.00
2013-9-21,84,74,66,73,68,62,89,81,69,29.92,29.79,3,0,5,0.00
2013-9-22,86,76,66,75,69,62,90,80,66,29.92,29.80,0,0,0,0.00
2013-9-23,87,76,67,75,69,63,88,78,64,29.99,29.89,0,0,0,0.00
2013-9-24,87,77,68,73,68,64,88,76,60,30.02,29.91,0,0,0,0.00
2013-9-25,85,74,64,70,66,60,91,76,60,30.03,29.91,0,0,0,0.00
2013-9-26,86,74,63,71,65,60,91,75,58,30.05,29.92,0,0,0,0.00
2013-9-27,86,75,65,73,67,61,89,77,61,30.01,29.90,0,0,0,0.00
2013-9-28,88,77,66,75,69,62,90,77,61,29.99,29.87,0,0,0,0.00
2013-9-29,88,76,69,75,69,65,89,79,61,29.98,29.90,0,0,0,0.00
2013-10-1,83,79,75,72,70,68,80,75,65,30.05,29.92,16,3,20,0.00
2013-10-3,78,78,78,71,71,71,79,79,79,29.81,29.81,3,3,10,0.00
2013-10-4,71,71,71,66,66,66,86,86,86,29.87,29.87,0,0,3,0.00
2013-10-5,87,78,73,74,70,65,82,77,66,30.04,29.87,9,1,13,0.00
2013-10-6,82,76,71,71,68,65,88,78,67,29.98,29.84,18,4,21,0.00
2013-10-7,82,75,67,72,67,62,84,77,64,29.93,29.82,12,3,16,0.00
2013-10-8,87,75,62,74,68,59,91,79,65,29.89,29.82,5,0,9,0.00
2013-10-9,86,75,62,76,68,59,90,79,65,30.01,29.87,17,3,21,0.01
2013-10-10,83,78,74,71,68,66,82,72,56,30.07,29.93,15,4,20,0.00
2013-10-11,86,76,69,70,66,64,85,70,54,30.01,29.87,15,5,20,0.00
2013-10-12,83,75,67,68,65,62,84,71,57,29.97,29.88,15,3,20,0.00
2013-10-13,90,78,69,77,70,63,85,77,61,29.97,29.85,12,4,15,0.00
2013-10-14,87,81,78,78,75,72,86,81,73,29.97,29.83,5,1,10,0.00
2013-10-15,88,80,75,79,74,70,87,81,73,30.02,29.89,15,3,20,0.00
2013-10-16,88,80,75,77,72,69,86,77,67,30.06,29.93,16,3,20,0.25
2013-10-17,82,76,71,74,71,68,90,83,74,30.06,29.91,12,1,14,0.01
2013-10-18,85,78,74,76,72,70,88,81,75,30.02,29.91,16,3,22,0.00
2013-10-19,87,79,72,72,70,67,87,73,58,30.03,29.94,6,1,14,0.00
2013-10-20,85,79,72,72,69,66,87,73,59,30.02,29.90,5,1,15,0.00
2013-10-21,86,78,72,72,69,65,87,74,52,29.96,29.87,6,1,15,0.01
2013-10-22,82,74,70,74,70,66,91,85,73,29.95,29.86,14,1,18,0.14
2013-10-23,84,77,72,75,72,69,92,83,72,29.97,29.84,15,5,20,0.22
2013-10-24,86,78,70,75,70,66,89,79,67,29.95,29.84,14,2,17,0.00
2013-10-25,86,77,68,73,68,64,89,75,58,30.01,29.88,14,3,17,0.00
2013-10-26,85,79,71,72,68,65,85,72,55,30.05,29.94,13,2,18,0.00
2013-10-27,85,78,71,73,69,66,86,75,60,30.03,29.95,13,2,17,0.00
2013-10-28,85,78,70,71,68,65,84,71,56,30.06,29.95,10,2,14,0.00
2013-10-29,83,77,70,72,68,64,82,72,61,30.03,29.90,15,5,20,0.00
2013-10-30,86,77,68,73,68,63,86,75,62,29.97,29.85,3,1,8,0.00
2013-10-31,88,79,69,76,70,65,88,76,65,29.96,29.85,5,1,9,0.00
2013-11-1,87,80,72,78,73,68,85,80,68,29.96,29.88,15,5,20,0.02
2013-11-2,84,77,71,74,71,67,91,82,70,30.05,29.90,17,2,23,1.20
2013-11-3,86,78,72,72,69,66,90,75,53,30.02,29.90,8,1,14,0.05
2013-11-4,85,76,68,71,67,64,87,74,55,29.99,29.89,14,3,18,0.00
2013-11-5,87,77,67,70,67,62,85,72,53,30.00,29.91,6,1,16,0.00
2013-11-6,85,78,73,73,69,66,80,73,61,30.01,29.89,12,2,16,0.00
2013-11-7,86,79,74,73,69,66,79,72,59,29.97,29.85,10,2,15,0.00
2013-11-8,85,78,71,73,69,66,84,74,61,29.95,29.84,12,2,17,0.00
2013-11-9,87,77,69,72,68,64,85,73,46,29.92,29.81,13,2,16,0.00
2013-11-10,87,76,68,73,68,62,83,74,60,29.89,29.75,17,4,20,0.00
2013-11-11,88,78,70,76,71,65,85,78,63,29.86,29.77,14,4,18,0.00
2013-11-12,84,79,75,78,74,72,90,85,80,29.89,29.79,15,3,18,0.35
2013-11-13,85,80,75,76,74,71,90,81,72,29.92,29.80,10,2,14,0.02
2013-11-14,86,80,75,78,74,70,86,81,69,29.91,29.80,10,3,14,0.00
2013-11-15,78,76,75,73,72,71,89,88,86,29.87,29.82,1,0,4,0.00
2013-11-17,88,82,79,78,75,73,84,79,70,29.83,29.75,7,2,13,0.00
2013-11-18,74,74,74,70,70,70,87,87,87,29.80,29.80,0,0,2,0.00
2013-11-21,83,83,83,76,76,76,79,79,79,29.81,29.81,1,1,4,0.00
2013-11-23,85,80,76,78,76,74,91,86,80,29.75,29.66,12,4,16,0.20
2013-11-24,88,79,75,80,75,72,91,87,76,29.78,29.66,6,1,10,0.46
2013-11-25,83,78,74,77,74,71,91,87,78,29.73,29.62,18,2,25,0.46
2013-11-26,89,81,73,80,76,71,93,84,73,29.74,29.63,7,1,10,0.06
2013-11-27,91,83,77,80,76,73,89,80,69,29.84,29.67,7,1,12,0.00
2013-11-28,85,80,76,77,75,73,90,86,77,29.90,29.78,10,0,15,0.35
2013-11-29,86,80,76,79,75,73,90,84,76,29.88,29.75,10,2,14,0.00
2013-11-30,90,82,77,81,76,73,89,82,71,29.87,29.75,3,0,6,0.01
2013-12-1,92,83,77,79,76,74,91,79,57,29.95,29.82,8,1,12,0.04
2013-12-2,86,79,75,76,72,68,90,81,70,29.97,29.88,3,1,16,0.22
2013-12-3,85,79,74,73,71,69,82,75,62,29.88,29.82,3,1,12,0.00
2013-12-4,87,78,70,74,70,66,86,76,60,29.87,29.76,10,2,16,0.00
2013-12-5,73,71,69,67,66,65,88,86,83,29.81,29.74,1,0,6,0.00
2013-12-15,89,84,80,78,74,69,79,73,64,29.88,29.79,7,2,13,0.01
2013-12-16,87,78,72,77,72,69,90,84,70,29.89,29.80,5,1,13,0.58
2013-12-17,89,81,73,75,71,69,91,73,58,29.91,29.81,7,2,20,0.01
2013-12-18,89,83,78,75,72,69,83,70,56,29.93,29.84,6,2,17,0.00
2013-12-19,88,80,73,76,72,70,89,78,64,29.93,29.83,6,1,17,0.17
2013-12-20,87,79,73,75,72,69,90,79,63,29.94,29.85,6,1,15,0.28
2013-12-21,86,79,72,74,71,68,87,77,62,29.92,29.83,7,1,13,0.01
2013-12-22,87,80,72,73,70,68,87,74,56,29.91,29.82,6,1,12,0.00
2013-12-23,83,77,72,75,71,69,90,84,72,29.92,29.83,13,1,17,0.06
2013-12-24,85,78,69,75,70,66,89,78,63,29.92,29.82,16,4,20,0.00
2013-12-25,86,78,71,76,72,66,91,82,74,29.91,29.81,16,2,20,0.25
2013-12-26,86,80,74,76,72,69,89,78,67,29.87,29.76,16,4,21,0.00
2013-12-27,89,80,70,76,71,66,88,75,57,29.84,29.71,5,0,10,0.00
2013-12-28,89,80,68,78,71,65,89,76,64,29.84,29.74,6,1,10,0.00
2013-12-29,89,82,72,78,73,68,89,76,65,29.86,29.78,3,0,7,0.00
2013-12-30,89,80,69,79,73,66,91,80,67,29.87,29.77,3,0,7,0.00
2013-12-31,90,81,70,79,74,67,90,79,67,29.85,29.74,5,1,8,0.01
2014-1-1,88,81,73,80,75,69,87,80,74,29.83,29.73,6,1,9,0.00
2014-1-2,91,84,77,80,76,72,86,77,68,29.88,29.76,5,0,7,0.00